User: anonymous   Login
Location: Unspecified
(0.0000°N, 0.0000°E)
Time: 09:09:04
(UTC+02:00)
Language:

Cosmos 1833 Rocket - Orbit

View from above orbital plane
View from above orbital plane
View from above satellite
View from above satellite

Ground track
Ground track

The orbit data is extracted from the following two-line orbital elements,

1 17590U 87027B   17268.53207875 -.00000064  00000-0 -82658-5 0  9993
2 17590  71.0023 298.6752 0004354 178.7822 181.3313 14.16749166578338
Epoch (UTC): 25 September 2017 12:46:11
Eccentricity: 0.0004354
inclination: 71.0023°
perigee height: 833 km
apogee height: 839 km
right ascension of ascending node: 298.6752°
argument of perigee: 178.7822°
revolutions per day: 14.16749166
mean anomaly at epoch: 181.3313°
orbit number at epoch: 57833

The dashed part of the orbit path shows where the satellite is in the earth's shadow,  

DLR